Weather History for LTCE - January, 2014

Change the Weather History Date:

Thursday, January 9, 2014

  Actual Average Record
Temperature  
Mean Temperature -2 °F -  
Max Temperature 9 °F 26 °F 37 °F (1997)
Min Temperature -13 °F 12 °F -23 °F (2005)
Degree Days  
Heating Degree Days 67    
Moisture  
Dew Point -6 °F    
Average Humidity 89    
Maximum Humidity 100    
Minimum Humidity 84    
Precipitation  
Precipitation 0.00 in 0.03 in - ()
Sea Level Pressure  
Sea Level Pressure 30.25 in    
Wind  
Wind Speed 1 mph ()    
Max Wind Speed 4 mph    
Max Gust Speed -    
Visibility 0.9 miles    
Events Fog    
Averages and records for this station are not official NWS values.
T = Trace of Precipitation, MM = Missing Value Source: Averaged Metar Reports

Daily Weather History Graph

Daily Weather History Graph

Search for Another Location

Airport or City:

Trip Planner

Search our weather history database for the weather conditions in past years. The results will help you decide how hot, cold, wet, or windy it might be!

Date:

Astronomy

Jan. 09, 2014 Rise Set
Actual Time 6:36 AM EET 4:08 PM EET
Civil Twilight 6:06 AM EET 4:38 PM EET
Nautical Twilight 5:33 AM EET 5:11 PM EET
Astronomical Twilight 5:00 AM EET 5:44 PM EET
Moon 11:22 AM EET (1/9) 12:22 AM EET (1/9)
Length of Visible Light 10h 31m
Length of Day
9h 31m
Waxing Gibbous, 63% of the Moon is Illuminated
Jan 9
Waxing Gibbous
Jan 16
Full
Jan 24
Last Quarter
Jan 30
New
Feb 6
First Quarter

Hourly Weather History & Observations

Time (EET) Temp. Windchill Dew Point Humidity Pressure Visibility Wind Dir Wind Speed Gust Speed Precip Events Conditions
12:20 AM -9.4 °F - -13.0 °F 84% 30.30 in 0.2 mi Calm Calm - N/A Fog Patches of Fog
12:28 AM -9.4 °F - -13.0 °F 84% 30.30 in 0.8 mi ESE 1.2 mph - N/A Fog Patches of Fog
12:50 AM -9.4 °F - -13.0 °F 84% 30.30 in 0.7 mi Variable 2.3 mph - N/A Fog Patches of Fog
1:20 AM -7.6 °F - -11.2 °F 84% 30.30 in 0.2 mi Calm Calm - N/A Fog Light Freezing Fog
1:50 AM -11.2 °F - -14.8 °F 84% 30.30 in 0.2 mi NNW 2.3 mph - N/A Fog Light Freezing Fog
2:00 AM -11 °F - -11 °F 100%  in 0 mi NNW 2.3 mph - - Fog Fog
2:20 AM -9.4 °F - -13.0 °F 84% 30.30 in 0.2 mi Calm Calm - N/A Fog Light Freezing Fog
2:50 AM -11.2 °F - -13.0 °F 92% 30.30 in 0.2 mi Calm Calm - N/A Fog Light Freezing Fog
3:20 AM -13.0 °F - -16.6 °F 84% 30.30 in 0.2 mi SSE 2.3 mph - N/A Fog Light Freezing Fog
3:50 AM -13.0 °F - -16.6 °F 84% 30.27 in 0.2 mi Calm Calm - N/A Fog Light Freezing Fog
4:20 AM -11.2 °F - -14.8 °F 84% 30.27 in 0.2 mi Calm Calm - N/A Fog Light Freezing Fog
4:50 AM -11.2 °F - -14.8 °F 84% 30.27 in 0.2 mi Calm Calm - N/A Fog Light Freezing Fog
5:00 AM -12 °F - -12 °F 100%  in 0 mi Calm Calm - - Fog Fog
5:20 AM -13.0 °F - -13.0 °F 100% 30.27 in 0.2 mi Calm Calm - N/A Fog Light Freezing Fog
5:50 AM -13.0 °F - -16.6 °F 84% 30.27 in 0.2 mi Calm Calm - N/A Fog Light Freezing Fog
6:20 AM -13.0 °F - -16.6 °F 84% 30.27 in 0.2 mi Calm Calm - N/A Fog Light Freezing Fog
6:50 AM -13.0 °F - -16.6 °F 84% 30.30 in 0.1 mi Calm Calm - N/A Fog Light Freezing Fog
7:20 AM -11.2 °F - -14.8 °F 84% 30.30 in 0.1 mi Calm Calm - N/A Fog Light Freezing Fog
7:50 AM -11.2 °F - -14.8 °F 84% 30.30 in 0.1 mi West 1.2 mph - N/A Fog Light Freezing Fog
8:00 AM -11 °F - -11 °F 100%  in 0 mi West 1.2 mph - - Fog Heavy Fog
8:20 AM -9.4 °F - -13.0 °F 84% 30.30 in 0.1 mi Calm Calm - N/A Fog Light Freezing Fog
8:50 AM -7.6 °F - -11.2 °F 84% 30.30 in 0.2 mi Calm Calm - N/A Fog Light Freezing Fog
8:58 AM -7.6 °F - -9.4 °F 92% 30.30 in 0.2 mi Calm Calm - N/A Fog Light Freezing Fog
9:14 AM -5.8 °F - -7.6 °F 92% 30.30 in 0.3 mi Calm Calm - N/A Fog Light Freezing Fog
9:20 AM -5.8 °F - -7.6 °F 92% 30.30 in - Calm Calm - N/A Fog Light Freezing Fog
9:50 AM -2.2 °F - -5.8 °F 85% 30.30 in 0.6 mi Calm Calm - N/A Fog Patches of Fog
10:14 AM -0.4 °F - -4.0 °F 85% 30.27 in 0.6 mi Calm Calm - N/A Fog Patches of Fog
10:20 AM -0.4 °F - -4.0 °F 85% 30.27 in 0.6 mi Calm Calm - N/A Fog Patches of Fog
10:50 AM 3.2 °F - 1.4 °F 92% 30.27 in 0.7 mi Calm Calm - N/A   Mist
11:00 AM 3 °F - 2 °F 92%  in 1 mi Calm Calm - -   Mist
11:20 AM 8.6 °F - 6.8 °F 92% 30.24 in 0.7 mi Calm Calm - N/A   Mist
11:50 AM 5.0 °F - 1.4 °F 85% 30.24 in 1.0 mi NNE 2.3 mph - N/A   Mist
12:20 PM 5.0 °F - 3.2 °F 92% 30.24 in 1.0 mi Variable 2.3 mph - N/A   Mist
12:50 PM 6.8 °F - 5.0 °F 92% 30.21 in 1.2 mi Calm Calm - N/A   Mist
1:20 PM 8.6 °F - 6.8 °F 92% 30.21 in 1.4 mi Variable 1.2 mph - N/A   Mist
1:50 PM 8.6 °F - 6.8 °F 92% 30.21 in 1.4 mi Variable 1.2 mph - N/A   Mist
2:00 PM 8 °F - 8 °F 100%  in 1 mi ENE 1.2 mph - -   Mist
2:20 PM 8.6 °F - 6.8 °F 92% 30.21 in 1.6 mi Variable 1.2 mph - N/A   Mist
2:50 PM 8.6 °F - 6.8 °F 92% 30.21 in 1.7 mi NE 1.2 mph - N/A   Mist
3:20 PM 8.6 °F - 6.8 °F 92% 30.21 in 1.7 mi Calm Calm - N/A   Mist
3:50 PM 5.0 °F - 3.2 °F 92% 30.21 in 1.7 mi Variable 1.2 mph - N/A   Mist
4:20 PM 3.2 °F - 1.4 °F 92% 30.21 in 1.7 mi Calm Calm - N/A   Mist
4:50 PM 3.2 °F - 1.4 °F 92% 30.21 in 1.8 mi Calm Calm - N/A   Mist
5:00 PM 3 °F - 1 °F 88%  in 2 mi Calm Calm - -   Mist
5:20 PM -2.2 °F - -5.8 °F 85% 30.21 in 1.8 mi Calm Calm - N/A   Mist
5:50 PM -0.4 °F - -4.0 °F 85% 30.21 in 1.8 mi Variable 1.2 mph - N/A   Mist
6:20 PM -2.2 °F - -4.0 °F 92% 30.21 in 1.8 mi Variable 1.2 mph - N/A   Mist
6:50 PM -0.4 °F - -2.2 °F 92% 30.21 in - Calm Calm - N/A   Mist
7:20 PM -0.4 °F - -2.2 °F 92% 30.21 in - WSW 2.3 mph - N/A   Mist
7:50 PM -2.2 °F - -4.0 °F 92% 30.21 in - Variable 1.2 mph - N/A   Mist
8:00 PM -2 °F - -3 °F 95%  in 2 mi NW 1.2 mph - -   Mist
8:20 PM -0.4 °F - -4.0 °F 85% 30.21 in - Calm Calm - N/A   Mist
8:50 PM -0.4 °F - -4.0 °F 85% 30.21 in - SSW 2.3 mph - N/A   Mist
9:20 PM -0.4 °F -8.3 °F -2.2 °F 92% 30.21 in 1.8 mi South 3.5 mph - N/A   Mist
9:50 PM -4.0 °F - -7.6 °F 85% 30.21 in 1.8 mi Calm Calm - N/A   Mist
10:20 PM -2.2 °F -10.4 °F -4.0 °F 92% 30.21 in 1.8 mi SW 3.5 mph - N/A   Mist
10:50 PM -4.0 °F - -7.6 °F 85% 30.21 in - Variable 2.3 mph - N/A   Mist
11:20 PM -2.2 °F - -5.8 °F 85% 30.21 in - NW 2.3 mph - N/A   Mist
11:50 PM -4.0 °F - -7.6 °F 85% 30.21 in 2.2 mi Variable 1.2 mph - N/A   Mist